Terug naar catalogus

DELTA 1 DEB

ActiefPO
NORAD 23310·DEBRIS·🇺🇸 United States

Gelanceerd Jun 12, 1975 vanaf Vandenberg Space Force Base

Loading…

Volgende Passages (komende 24 uur)

TLE

VersSource: Space-Track

Epoch: Sep 13, 2026, 04:57 UTC

1 23310U 75052JZ  26256.20649243  .00000183  00000-0  68033-3 0  9994
2 23310  99.9267 337.8715 0320857 269.4287 112.9637 12.89961696596309

Volg DELTA 1 DEB in realtime met AllMySat

Download on the App Store